Location: Darmstadt
(49.8706°N, 8.6494°E)
Time: 07:26:18
(UTC+01:00)

H-2A R/B - Pass Details

Date: 31 October 2020
Orbit: 528 x 653 km, 98.3° (Epoch: 02 December)

Event Time Altitude Azimuth Distance (km) Brightness Sun altitude
Rises 17:38:53 0° 178° (S) 2,943 6.2 -6.2°
Reaches altitude 10° 17:41:08 10° 184° (S) 2,047 5.5 -6.6°
Maximum altitude 17:45:29 50° 260° (W) 838 3.8 -7.3°
Drops below altitude 10° 17:49:54 10° 336° (NNW) 2,071 5.4 -8.0°
Sets 17:52:11 0° 342° (NNW) 2,982 6.1 -8.3°
